Time,TemperatureF,DewpointF,PressureIn,WindDirection,WindDirectionDegrees,WindSpeedMPH,WindSpeedGustMPH,Humidity,HourlyPrecipIn,Conditions,Clouds,dailyrainin,SoftwareType,DateUTC
2013-02-07 00:00:00,39.5,29.5,30.16,West,270,1.0,3.0,67,0.00,,---,0.00,VWS V14.01,2013-02-07 07:00:00,
2013-02-07 00:05:00,39.3,29.3,30.16,West,270,2.0,4.0,67,0.00,,---,0.00,VWS V14.01,2013-02-07 07:05:00,
2013-02-07 00:10:00,39.2,29.5,30.16,West,270,2.0,4.0,68,0.00,,---,0.00,VWS V14.01,2013-02-07 07:10:00,
2013-02-07 00:15:00,39.2,29.5,30.16,West,270,3.0,4.0,68,0.00,,---,0.00,VWS V14.01,2013-02-07 07:15:00,
2013-02-07 00:20:00,39.1,29.5,30.16,West,270,3.0,4.0,68,0.00,,---,0.00,VWS V14.01,2013-02-07 07:20:00,
2013-02-07 00:25:00,39.0,29.4,30.16,West,270,1.0,4.0,68,0.00,,---,0.00,VWS V14.01,2013-02-07 07:25:00,
2013-02-07 00:30:00,38.9,29.2,30.16,West,270,4.0,5.0,68,0.00,,---,0.00,VWS V14.01,2013-02-07 07:30:00,
2013-02-07 00:35:00,38.8,29.2,30.16,West,270,4.0,6.0,68,0.00,,---,0.00,VWS V14.01,2013-02-07 07:35:00,
2013-02-07 00:40:00,38.4,28.8,30.16,WSW,248,4.0,6.0,68,0.00,,---,0.00,VWS V14.01,2013-02-07 07:40:00,
2013-02-07 00:45:00,38.0,28.4,30.16,SW,225,5.0,7.0,68,0.00,,---,0.00,VWS V14.01,2013-02-07 07:45:00,
2013-02-07 00:50:00,37.7,28.5,30.16,South,180,5.0,7.0,69,0.00,,---,0.00,VWS V14.01,2013-02-07 07:50:00,
2013-02-07 00:55:00,37.5,28.6,30.16,South,180,4.0,6.0,70,0.00,,---,0.00,VWS V14.01,2013-02-07 07:55:00,
2013-02-07 01:00:00,37.4,28.9,30.16,South,180,3.0,6.0,71,0.00,,---,0.00,VWS V14.01,2013-02-07 08:00:00,
2013-02-07 01:05:00,37.3,28.8,30.16,South,180,3.0,5.0,71,0.00,,---,0.00,VWS V14.01,2013-02-07 08:05:00,
2013-02-07 01:10:00,37.2,28.7,30.16,South,180,4.0,5.0,71,0.00,,---,0.00,VWS V14.01,2013-02-07 08:10:00,
2013-02-07 01:15:00,37.0,28.1,30.17,South,180,4.0,5.0,70,0.00,,---,0.00,VWS V14.01,2013-02-07 08:15:00,
2013-02-07 01:20:00,36.8,28.0,30.17,South,180,3.0,4.0,70,0.00,,---,0.00,VWS V14.01,2013-02-07 08:20:00,
2013-02-07 01:25:00,36.5,27.7,30.17,South,180,4.0,6.0,70,0.00,,---,0.00,VWS V14.01,2013-02-07 08:25:00,
2013-02-07 01:30:00,36.2,27.7,30.17,South,180,2.0,5.0,71,0.00,,---,0.00,VWS V14.01,2013-02-07 08:30:00,
2013-02-07 01:35:00,35.9,27.4,30.17,South,180,4.0,5.0,71,0.00,,---,0.00,VWS V14.01,2013-02-07 08:35:00,
2013-02-07 01:40:00,35.6,27.5,30.17,South,180,5.0,6.0,72,0.00,,---,0.00,VWS V14.01,2013-02-07 08:40:00,
2013-02-07 01:45:00,35.3,27.2,30.17,South,180,4.0,6.0,72,0.00,,---,0.00,VWS V14.01,2013-02-07 08:45:00,
2013-02-07 01:50:00,35.1,27.0,30.17,South,180,3.0,5.0,72,0.00,,---,0.00,VWS V14.01,2013-02-07 08:50:00,
2013-02-07 01:55:00,34.9,27.1,30.17,South,180,3.0,5.0,73,0.00,,---,0.00,VWS V14.01,2013-02-07 08:55:00,
2013-02-07 02:00:00,34.6,26.9,30.17,South,180,3.0,4.0,73,0.00,,---,0.00,VWS V14.01,2013-02-07 09:00:00,
2013-02-07 02:05:00,34.4,27.0,30.17,South,180,2.0,3.0,74,0.00,,---,0.00,VWS V14.01,2013-02-07 09:05:00,
2013-02-07 02:10:00,34.3,26.9,30.17,South,180,3.0,3.0,74,0.00,,---,0.00,VWS V14.01,2013-02-07 09:10:00,
2013-02-07 02:15:00,34.2,26.8,30.17,South,180,0.0,2.0,74,0.00,,---,0.00,VWS V14.01,2013-02-07 09:15:00,
2013-02-07 02:20:00,34.1,26.7,30.17,South,180,0.0,0.0,74,0.00,,---,0.00,VWS V14.01,2013-02-07 09:20:00,
2013-02-07 02:25:00,34.1,26.7,30.17,South,180,0.0,0.0,74,0.00,,---,0.00,VWS V14.01,2013-02-07 09:25:00,
2013-02-07 02:30:00,34.1,27.0,30.17,South,180,0.0,0.0,75,0.00,,---,0.00,VWS V14.01,2013-02-07 09:30:00,
2013-02-07 02:35:00,34.2,27.1,30.17,South,180,0.0,0.0,75,0.00,,---,0.00,VWS V14.01,2013-02-07 09:35:00,
2013-02-07 02:40:00,34.3,26.9,30.17,South,180,0.0,2.0,74,0.00,,---,0.00,VWS V14.01,2013-02-07 09:40:00,
2013-02-07 02:45:00,34.3,26.9,30.17,South,180,0.0,2.0,74,0.00,,---,0.00,VWS V14.01,2013-02-07 09:45:00,
2013-02-07 02:50:00,34.3,26.6,30.17,South,180,0.0,0.0,73,0.00,,---,0.00,VWS V14.01,2013-02-07 09:50:00,
2013-02-07 02:55:00,34.3,26.6,30.17,South,180,0.0,0.0,73,0.00,,---,0.00,VWS V14.01,2013-02-07 09:55:00,
2013-02-07 03:00:00,34.3,26.6,30.17,South,180,0.0,0.0,73,0.00,,---,0.00,VWS V14.01,2013-02-07 10:00:00,
2013-02-07 03:05:00,34.3,26.2,30.17,South,180,0.0,2.0,72,0.00,,---,0.00,VWS V14.01,2013-02-07 10:05:00,
2013-02-07 03:10:00,34.4,26.3,30.17,South,180,0.0,2.0,72,0.00,,---,0.00,VWS V14.01,2013-02-07 10:10:00,
2013-02-07 03:15:00,34.6,26.2,30.18,South,180,0.0,1.0,71,0.00,,---,0.00,VWS V14.01,2013-02-07 10:15:00,
2013-02-07 03:20:00,34.6,26.2,30.18,South,180,0.0,0.0,71,0.00,,---,0.00,VWS V14.01,2013-02-07 10:20:00,
2013-02-07 03:25:00,34.6,25.8,30.18,South,180,0.0,0.0,70,0.00,,---,0.00,VWS V14.01,2013-02-07 10:25:00,
2013-02-07 03:30:00,34.7,25.9,30.18,South,180,0.0,0.0,70,0.00,,---,0.00,VWS V14.01,2013-02-07 10:30:00,
2013-02-07 03:35:00,34.7,25.6,30.18,South,180,0.0,3.0,69,0.00,,---,0.00,VWS V14.01,2013-02-07 10:35:00,
2013-02-07 03:40:00,34.6,25.5,30.18,South,180,2.0,3.0,69,0.00,,---,0.00,VWS V14.01,2013-02-07 10:40:00,
2013-02-07 03:45:00,34.6,25.5,30.18,South,180,1.0,3.0,69,0.00,,---,0.00,VWS V14.01,2013-02-07 10:45:00,
2013-02-07 03:50:00,34.4,25.3,30.18,South,180,0.0,0.0,69,0.00,,---,0.00,VWS V14.01,2013-02-07 10:50:00,
2013-02-07 03:55:00,34.2,25.1,30.18,South,180,0.0,3.0,69,0.00,,---,0.00,VWS V14.01,2013-02-07 10:55:00,
2013-02-07 04:00:00,34.0,25.3,30.18,South,180,0.0,0.0,70,0.00,,---,0.00,VWS V14.01,2013-02-07 11:00:00,
2013-02-07 04:05:00,33.9,25.2,30.18,South,180,0.0,0.0,70,0.00,,---,0.00,VWS V14.01,2013-02-07 11:05:00,
2013-02-07 04:10:00,33.7,25.3,30.18,South,180,0.0,0.0,71,0.00,,---,0.00,VWS V14.01,2013-02-07 11:10:00,
2013-02-07 04:15:00,33.7,25.3,30.18,South,180,1.0,3.0,71,0.00,,---,0.00,VWS V14.01,2013-02-07 11:15:00,
2013-02-07 04:20:00,33.7,25.6,30.18,South,180,2.0,3.0,72,0.00,,---,0.00,VWS V14.01,2013-02-07 11:20:00,
2013-02-07 04:26:00,33.7,25.6,30.18,South,180,2.0,3.0,72,0.00,,---,0.00,VWS V14.01,2013-02-07 11:26:00,
2013-02-07 04:28:00,33.7,25.6,30.18,South,187,3.0,3.0,72,0.00,,---,0.00,VWS V14.01,2013-02-07 11:28:00,
2013-02-07 04:30:00,33.7,25.6,30.18,South,187,2.0,3.0,72,0.00,,---,0.00,VWS V14.01,2013-02-07 11:30:00,
2013-02-07 04:33:00,33.7,25.6,30.18,South,187,1.0,3.0,72,0.00,,---,0.00,VWS V14.01,2013-02-07 11:33:00,
2013-02-07 04:35:00,33.7,25.6,30.18,South,187,3.0,3.0,72,0.00,,---,0.00,VWS V14.01,2013-02-07 11:35:00,
2013-02-07 04:38:00,33.8,25.7,30.18,South,187,2.0,3.0,72,0.00,,---,0.00,VWS V14.01,2013-02-07 11:38:00,
2013-02-07 04:40:00,33.8,25.8,30.18,South,187,0.0,3.0,72,0.00,,---,0.00,VWS V14.01,2013-02-07 11:40:00,
2013-02-07 04:43:00,34.0,25.6,30.18,South,187,0.0,0.0,71,0.00,,---,0.00,VWS V14.01,2013-02-07 11:43:00,
2013-02-07 04:45:00,34.0,25.6,30.18,South,187,0.0,0.0,71,0.00,,---,0.00,VWS V14.01,2013-02-07 11:45:00,
2013-02-07 04:48:00,33.8,25.1,30.18,South,187,0.0,0.0,70,0.00,,---,0.00,VWS V14.01,2013-02-07 11:48:00,
2013-02-07 04:50:00,33.8,25.1,30.18,South,187,0.0,0.0,70,0.00,,---,0.00,VWS V14.01,2013-02-07 11:50:00,
2013-02-07 04:53:00,33.7,25.0,30.18,South,187,2.0,3.0,70,0.00,,---,0.00,VWS V14.01,2013-02-07 11:53:00,
2013-02-07 04:55:00,33.5,24.8,30.18,South,187,3.0,3.0,70,0.00,,---,0.00,VWS V14.01,2013-02-07 11:55:00,
2013-02-07 04:58:00,33.5,24.8,30.18,South,187,1.0,3.0,70,0.00,,---,0.00,VWS V14.01,2013-02-07 11:58:00,
2013-02-07 05:00:00,33.4,24.7,30.18,South,187,1.0,3.0,70,0.00,,---,0.00,VWS V14.01,2013-02-07 12:00:00,
2013-02-07 05:03:00,33.4,24.7,30.18,South,187,0.0,2.0,70,0.00,,---,0.00,VWS V14.01,2013-02-07 12:03:00,
2013-02-07 05:05:00,33.2,24.5,30.18,South,187,0.0,2.0,70,0.00,,---,0.00,VWS V14.01,2013-02-07 12:05:00,
2013-02-07 05:08:00,33.1,24.4,30.18,South,187,0.0,0.0,70,0.00,,---,0.00,VWS V14.01,2013-02-07 12:08:00,
2013-02-07 05:10:00,33.1,24.4,30.18,South,187,0.0,0.0,70,0.00,,---,0.00,VWS V14.01,2013-02-07 12:10:00,
2013-02-07 05:13:00,32.9,24.2,30.18,South,187,3.0,3.0,70,0.00,,---,0.00,VWS V14.01,2013-02-07 12:13:00,
2013-02-07 05:15:00,32.9,24.2,30.19,South,187,2.0,3.0,70,0.00,,---,0.00,VWS V14.01,2013-02-07 12:15:00,
2013-02-07 05:18:00,32.8,24.1,30.19,South,187,0.0,2.0,70,0.00,,---,0.00,VWS V14.01,2013-02-07 12:18:00,
2013-02-07 05:20:00,32.8,24.5,30.19,South,187,0.0,2.0,71,0.00,,---,0.00,VWS V14.01,2013-02-07 12:20:00,
2013-02-07 05:23:00,32.7,24.4,30.19,South,187,0.0,0.0,71,0.00,,---,0.00,VWS V14.01,2013-02-07 12:23:00,
2013-02-07 05:25:00,32.7,24.4,30.19,South,187,0.0,0.0,71,0.00,,---,0.00,VWS V14.01,2013-02-07 12:25:00,
2013-02-07 05:28:00,32.5,24.2,30.19,South,187,3.0,3.0,71,0.00,,---,0.00,VWS V14.01,2013-02-07 12:28:00,
2013-02-07 05:30:00,32.4,24.1,30.20,South,187,2.0,3.0,71,0.00,,---,0.00,VWS V14.01,2013-02-07 12:30:00,
2013-02-07 05:33:00,32.2,23.9,30.20,South,187,3.0,4.0,71,0.00,,---,0.00,VWS V14.01,2013-02-07 12:33:00,
2013-02-07 05:35:00,32.1,23.8,30.20,South,187,2.0,4.0,71,0.00,,---,0.00,VWS V14.01,2013-02-07 12:35:00,
2013-02-07 05:38:00,31.9,23.6,30.20,South,187,1.0,4.0,71,0.00,,---,0.00,VWS V14.01,2013-02-07 12:38:00,
2013-02-07 05:40:00,31.8,23.5,30.20,South,187,2.0,4.0,71,0.00,,---,0.00,VWS V14.01,2013-02-07 12:40:00,
2013-02-07 05:43:00,31.6,23.6,30.20,South,187,3.0,4.0,72,0.00,,---,0.00,VWS V14.01,2013-02-07 12:43:00,
2013-02-07 05:45:00,31.6,23.6,30.20,South,187,3.0,4.0,72,0.00,,---,0.00,VWS V14.01,2013-02-07 12:45:00,
2013-02-07 05:48:00,31.5,23.5,30.20,South,187,2.0,4.0,72,0.00,,---,0.00,VWS V14.01,2013-02-07 12:48:00,
2013-02-07 05:50:00,31.3,23.7,30.20,South,187,4.0,4.0,73,0.00,,---,0.00,VWS V14.01,2013-02-07 12:50:00,
2013-02-07 05:53:00,31.3,23.7,30.20,South,187,0.0,4.0,73,0.00,,---,0.00,VWS V14.01,2013-02-07 12:53:00,
2013-02-07 05:55:00,31.3,23.7,30.20,South,187,0.0,4.0,73,0.00,,---,0.00,VWS V14.01,2013-02-07 12:55:00,
2013-02-07 05:58:00,31.2,23.6,30.20,South,187,0.0,0.0,73,0.00,,---,0.00,VWS V14.01,2013-02-07 12:58:00,
2013-02-07 06:00:00,31.2,23.6,30.20,South,187,0.0,0.0,73,0.00,,---,0.00,VWS V14.01,2013-02-07 13:00:00,
2013-02-07 06:03:00,31.2,23.6,30.20,South,187,0.0,0.0,73,0.00,,---,0.00,VWS V14.01,2013-02-07 13:03:00,
2013-02-07 06:05:00,31.2,23.6,30.20,South,187,0.0,0.0,73,0.00,,---,0.00,VWS V14.01,2013-02-07 13:05:00,
2013-02-07 06:08:00,31.0,23.4,30.20,South,187,0.0,0.0,73,0.00,,---,0.00,VWS V14.01,2013-02-07 13:08:00,
2013-02-07 06:10:00,31.0,23.4,30.20,South,187,0.0,0.0,73,0.00,,---,0.00,VWS V14.01,2013-02-07 13:10:00,
2013-02-07 06:13:00,30.9,23.3,30.20,South,187,0.0,0.0,73,0.00,,---,0.00,VWS V14.01,2013-02-07 13:13:00,
2013-02-07 06:15:00,30.9,23.3,30.21,South,187,0.0,0.0,73,0.00,,---,0.00,VWS V14.01,2013-02-07 13:15:00,
2013-02-07 06:19:00,30.9,23.3,30.21,South,187,0.0,0.0,73,0.00,,---,0.00,VWS V14.01,2013-02-07 13:19:00,
2013-02-07 06:20:00,30.7,23.1,30.21,South,187,0.0,0.0,73,0.00,,---,0.00,VWS V14.01,2013-02-07 13:20:00,
2013-02-07 06:24:00,30.7,23.1,30.21,South,187,2.0,3.0,73,0.00,,---,0.00,VWS V14.01,2013-02-07 13:24:00,
2013-02-07 06:25:00,30.6,23.0,30.21,South,187,1.0,3.0,73,0.00,,---,0.00,VWS V14.01,2013-02-07 13:25:00,
2013-02-07 06:29:00,30.4,22.8,30.21,South,187,0.0,1.0,73,0.00,,---,0.00,VWS V14.01,2013-02-07 13:29:00,
2013-02-07 06:30:00,30.4,22.8,30.22,South,187,0.0,1.0,73,0.00,,---,0.00,VWS V14.01,2013-02-07 13:30:00,
2013-02-07 06:34:00,30.3,22.7,30.22,South,187,1.0,2.0,73,0.00,,---,0.00,VWS V14.01,2013-02-07 13:34:00,
2013-02-07 06:35:00,30.3,22.7,30.22,South,187,2.0,3.0,73,0.00,,---,0.00,VWS V14.01,2013-02-07 13:35:00,
2013-02-07 06:39:00,30.1,22.8,30.22,South,187,2.0,4.0,74,0.00,,---,0.00,VWS V14.01,2013-02-07 13:39:00,
2013-02-07 06:40:00,30.0,22.7,30.22,South,187,2.0,4.0,74,0.00,,---,0.00,VWS V14.01,2013-02-07 13:40:00,
2013-02-07 06:44:00,30.0,22.7,30.22,South,187,3.0,4.0,74,0.00,,---,0.00,VWS V14.01,2013-02-07 13:44:00,
2013-02-07 06:45:00,29.8,22.5,30.22,South,187,2.0,4.0,74,0.00,,---,0.00,VWS V14.01,2013-02-07 13:45:00,
2013-02-07 06:49:00,29.8,22.5,30.22,South,187,0.0,2.0,74,0.00,,---,0.00,VWS V14.01,2013-02-07 13:49:00,
2013-02-07 06:50:00,29.8,22.5,30.22,South,187,0.0,2.0,74,0.00,,---,0.00,VWS V14.01,2013-02-07 13:50:00,
2013-02-07 06:54:00,29.7,22.4,30.22,South,187,3.0,3.0,74,0.00,,---,0.00,VWS V14.01,2013-02-07 13:54:00,
2013-02-07 06:55:00,29.7,22.4,30.22,South,187,2.0,3.0,74,0.00,,---,0.00,VWS V14.01,2013-02-07 13:55:00,
2013-02-07 06:59:00,29.5,22.6,30.22,South,187,2.0,2.0,75,0.00,,---,0.00,VWS V14.01,2013-02-07 13:59:00,
2013-02-07 07:00:00,29.5,22.6,30.22,South,187,0.0,2.0,75,0.00,,---,0.00,VWS V14.01,2013-02-07 14:00:00,
2013-02-07 07:04:00,29.5,22.6,30.22,South,187,1.0,3.0,75,0.00,,---,0.00,VWS V14.01,2013-02-07 14:04:00,
2013-02-07 07:05:00,29.5,22.6,30.22,South,187,2.0,3.0,75,0.00,,---,0.00,VWS V14.01,2013-02-07 14:05:00,
2013-02-07 07:09:00,29.5,22.9,30.22,South,187,3.0,4.0,76,0.00,,---,0.00,VWS V14.01,2013-02-07 14:09:00,
2013-02-07 07:10:00,29.5,22.9,30.22,South,187,4.0,4.0,76,0.00,,---,0.00,VWS V14.01,2013-02-07 14:10:00,
2013-02-07 07:14:00,29.4,22.8,30.22,South,187,2.0,5.0,76,0.00,,---,0.00,VWS V14.01,2013-02-07 14:14:00,
2013-02-07 07:15:00,29.4,22.8,30.22,South,187,1.0,5.0,76,0.00,,---,0.00,VWS V14.01,2013-02-07 14:15:00,
2013-02-07 07:19:00,29.4,22.8,30.22,South,187,4.0,4.0,76,0.00,,---,0.00,VWS V14.01,2013-02-07 14:19:00,
2013-02-07 07:20:00,29.4,22.8,30.22,South,187,3.0,4.0,76,0.00,,---,0.00,VWS V14.01,2013-02-07 14:20:00,
2013-02-07 07:24:00,29.3,22.7,30.22,South,187,2.0,5.0,76,0.00,,---,0.00,VWS V14.01,2013-02-07 14:24:00,
2013-02-07 07:25:00,29.3,22.7,30.22,South,187,3.0,5.0,76,0.00,,---,0.00,VWS V14.01,2013-02-07 14:25:00,
2013-02-07 07:29:00,29.3,23.0,30.22,South,187,1.0,5.0,77,0.00,,---,0.00,VWS V14.01,2013-02-07 14:29:00,
2013-02-07 07:30:00,29.3,23.0,30.22,South,187,1.0,5.0,77,0.00,,---,0.00,VWS V14.01,2013-02-07 14:30:00,
2013-02-07 07:34:00,29.1,22.8,30.22,South,187,2.0,3.0,77,0.00,,---,0.00,VWS V14.01,2013-02-07 14:34:00,
2013-02-07 07:35:00,29.1,22.8,30.22,South,187,2.0,3.0,77,0.00,,---,0.00,VWS V14.01,2013-02-07 14:35:00,
2013-02-07 07:39:00,29.1,22.8,30.22,South,187,2.0,3.0,77,0.00,,---,0.00,VWS V14.01,2013-02-07 14:39:00,
2013-02-07 07:40:00,29.1,22.8,30.22,South,187,2.0,3.0,77,0.00,,---,0.00,VWS V14.01,2013-02-07 14:40:00,
2013-02-07 07:44:00,29.1,22.8,30.23,South,187,3.0,3.0,77,0.00,,---,0.00,VWS V14.01,2013-02-07 14:44:00,
2013-02-07 07:45:00,29.1,22.8,30.23,South,187,2.0,3.0,77,0.00,,---,0.00,VWS V14.01,2013-02-07 14:45:00,
2013-02-07 07:49:00,29.3,23.3,30.23,South,187,2.0,3.0,78,0.00,,---,0.00,VWS V14.01,2013-02-07 14:49:00,
2013-02-07 07:50:00,29.3,23.3,30.23,South,187,3.0,3.0,78,0.00,,---,0.00,VWS V14.01,2013-02-07 14:50:00,
2013-02-07 07:54:00,29.5,23.8,30.23,South,187,1.0,4.0,79,0.00,,---,0.00,VWS V14.01,2013-02-07 14:54:00,
2013-02-07 07:55:00,29.5,23.8,30.23,South,187,2.0,4.0,79,0.00,,---,0.00,VWS V14.01,2013-02-07 14:55:00,
2013-02-07 07:59:00,30.0,24.6,30.24,South,187,3.0,4.0,80,0.00,,---,0.00,VWS V14.01,2013-02-07 14:59:00,
2013-02-07 08:00:00,30.0,24.6,30.24,South,187,3.0,4.0,80,0.00,,---,0.00,VWS V14.01,2013-02-07 15:00:00,
2013-02-07 08:04:00,30.6,25.5,30.24,South,187,0.0,4.0,81,0.00,,---,0.00,VWS V14.01,2013-02-07 15:04:00,
2013-02-07 08:05:00,30.7,25.6,30.24,South,187,0.0,4.0,81,0.00,,---,0.00,VWS V14.01,2013-02-07 15:05:00,
2013-02-07 08:09:00,31.5,26.4,30.24,South,187,0.0,0.0,81,0.00,,---,0.00,VWS V14.01,2013-02-07 15:09:00,
2013-02-07 08:10:00,31.6,26.8,30.24,South,187,0.0,0.0,82,0.00,,---,0.00,VWS V14.01,2013-02-07 15:10:00,
2013-02-07 08:14:00,32.4,27.2,30.25,South,187,0.0,0.0,81,0.00,,---,0.00,VWS V14.01,2013-02-07 15:14:00,
2013-02-07 08:15:00,32.4,27.2,30.25,South,187,0.0,0.0,81,0.00,,---,0.00,VWS V14.01,2013-02-07 15:15:00,
2013-02-07 08:19:00,33.8,28.6,30.25,South,187,0.0,0.0,81,0.00,,---,0.00,VWS V14.01,2013-02-07 15:19:00,
2013-02-07 08:20:00,34.0,28.8,30.25,South,187,0.0,0.0,81,0.00,,---,0.00,VWS V14.01,2013-02-07 15:20:00,
2013-02-07 08:24:00,36.2,30.3,30.25,South,187,0.0,0.0,79,0.00,,---,0.00,VWS V14.01,2013-02-07 15:24:00,
2013-02-07 08:25:00,36.3,30.4,30.25,South,187,0.0,0.0,79,0.00,,---,0.00,VWS V14.01,2013-02-07 15:25:00,
2013-02-07 08:29:00,37.9,31.0,30.26,South,187,0.0,0.0,76,0.00,,---,0.00,VWS V14.01,2013-02-07 15:29:00,
2013-02-07 08:30:00,37.9,31.0,30.26,South,187,0.0,0.0,76,0.00,,---,0.00,VWS V14.01,2013-02-07 15:30:00,
2013-02-07 08:34:00,38.3,30.4,30.26,South,187,0.0,0.0,73,0.00,,---,0.00,VWS V14.01,2013-02-07 15:34:00,
2013-02-07 08:35:00,38.3,30.4,30.26,South,187,0.0,0.0,73,0.00,,---,0.00,VWS V14.01,2013-02-07 15:35:00,
2013-02-07 08:39:00,38.6,29.3,30.26,South,187,0.0,0.0,69,0.00,,---,0.00,VWS V14.01,2013-02-07 15:39:00,
2013-02-07 08:40:00,38.8,29.5,30.26,South,187,0.0,0.0,69,0.00,,---,0.00,VWS V14.01,2013-02-07 15:40:00,
2013-02-07 08:44:00,39.2,28.8,30.27,South,187,0.0,0.0,66,0.00,,---,0.00,VWS V14.01,2013-02-07 15:44:00,
2013-02-07 08:45:00,39.2,28.8,30.27,South,187,0.0,0.0,66,0.00,,---,0.00,VWS V14.01,2013-02-07 15:45:00,
2013-02-07 08:50:00,39.9,28.3,30.27,South,187,0.0,0.0,63,0.00,,---,0.00,VWS V14.01,2013-02-07 15:50:00,
2013-02-07 08:55:00,40.5,27.3,30.27,South,187,0.0,1.0,59,0.00,,---,0.00,VWS V14.01,2013-02-07 15:55:00,
2013-02-07 09:00:00,40.8,26.8,30.27,South,187,0.0,1.0,57,0.00,,---,0.00,VWS V14.01,2013-02-07 16:00:00,
2013-02-07 09:05:00,41.3,27.6,30.27,South,186,0.0,0.0,58,0.00,,---,0.00,VWS V14.01,2013-02-07 16:05:00,
2013-02-07 09:10:00,41.8,27.3,30.27,South,180,0.0,1.0,56,0.00,,---,0.00,VWS V14.01,2013-02-07 16:10:00,
2013-02-07 09:15:00,42.3,27.3,30.28,SSE,163,0.0,2.0,55,0.00,,---,0.00,VWS V14.01,2013-02-07 16:15:00,
2013-02-07 09:20:00,43.1,27.6,30.28,SSE,158,1.0,3.0,54,0.00,,---,0.00,VWS V14.01,2013-02-07 16:20:00,
2013-02-07 09:25:00,43.3,27.3,30.28,SE,144,0.0,3.0,53,0.00,,---,0.00,VWS V14.01,2013-02-07 16:25:00,
2013-02-07 09:30:00,43.8,28.2,30.27,SE,142,0.0,2.0,54,0.00,,---,0.00,VWS V14.01,2013-02-07 16:30:00,
2013-02-07 09:35:00,44.2,28.2,30.27,SE,142,0.0,1.0,53,0.00,,---,0.00,VWS V14.01,2013-02-07 16:35:00,
2013-02-07 09:40:00,44.8,28.3,30.27,SE,142,0.0,1.0,52,0.00,,---,0.00,VWS V14.01,2013-02-07 16:40:00,
2013-02-07 09:45:00,45.2,28.6,30.28,NNW,335,0.0,1.0,52,0.00,,---,0.00,VWS V14.01,2013-02-07 16:45:00,
2013-02-07 09:50:00,45.7,27.6,30.28,NNW,348,2.0,3.0,49,0.00,,---,0.00,VWS V14.01,2013-02-07 16:50:00,
2013-02-07 09:55:00,45.8,26.7,30.28,North,355,1.0,1.0,47,0.00,,---,0.00,VWS V14.01,2013-02-07 16:55:00,
2013-02-07 10:00:00,46.4,27.8,30.28,NNE,28,3.0,4.0,48,0.00,,---,0.00,VWS V14.01,2013-02-07 17:00:00,
2013-02-07 10:05:00,46.4,26.8,30.28,NNE,28,3.0,3.0,46,0.00,,---,0.00,VWS V14.01,2013-02-07 17:05:00,
2013-02-07 10:10:00,46.8,27.1,30.28,NNE,29,0.0,0.0,46,0.00,,---,0.00,VWS V14.01,2013-02-07 17:10:00,
2013-02-07 10:15:00,47.6,28.9,30.27,NNE,30,0.0,0.0,48,0.00,,---,0.00,VWS V14.01,2013-02-07 17:15:00,
2013-02-07 10:20:00,48.0,27.7,30.27,NNE,30,0.0,2.0,45,0.00,,---,0.00,VWS V14.01,2013-02-07 17:20:00,
2013-02-07 10:25:00,49.1,28.7,30.27,NNE,32,1.0,1.0,45,0.00,,---,0.00,VWS V14.01,2013-02-07 17:25:00,
2013-02-07 10:30:00,49.2,29.3,30.27,NNE,32,1.0,2.0,46,0.00,,---,0.00,VWS V14.01,2013-02-07 17:30:00,
2013-02-07 10:35:00,49.5,29.6,30.27,NE,44,1.0,3.0,46,0.00,,---,0.00,VWS V14.01,2013-02-07 17:35:00,
2013-02-07 10:40:00,49.9,29.4,30.27,NE,37,4.0,6.0,45,0.00,,---,0.00,VWS V14.01,2013-02-07 17:40:00,
2013-02-07 10:45:00,50.1,29.0,30.26,NNE,26,5.0,5.0,44,0.00,,---,0.00,VWS V14.01,2013-02-07 17:45:00,
2013-02-07 10:50:00,50.8,29.7,30.26,NNE,21,0.0,4.0,44,0.00,,---,0.00,VWS V14.01,2013-02-07 17:50:00,
2013-02-07 10:55:00,51.3,30.1,30.26,NNE,22,3.0,4.0,44,0.00,,---,0.00,VWS V14.01,2013-02-07 17:55:00,
2013-02-07 11:00:00,51.3,28.4,30.26,NE,44,6.0,6.0,41,0.00,,---,0.00,VWS V14.01,2013-02-07 18:00:00,
2013-02-07 11:05:00,51.0,27.5,30.26,NE,49,4.0,6.0,40,0.00,,---,0.00,VWS V14.01,2013-02-07 18:05:00,
2013-02-07 11:10:00,51.7,29.4,30.26,North,9,7.0,10.0,42,0.00,,---,0.00,VWS V14.01,2013-02-07 18:10:00,
2013-02-07 11:15:00,51.7,28.8,30.26,North,360,7.0,8.0,41,0.00,,---,0.00,VWS V14.01,2013-02-07 18:15:00,
2013-02-07 11:20:00,51.7,28.8,30.26,NE,39,5.0,10.0,41,0.00,,---,0.00,VWS V14.01,2013-02-07 18:20:00,
2013-02-07 11:21:00,51.9,28.4,30.26,NE,46,6.0,9.0,40,0.00,,---,0.00,VWS V14.01,2013-02-07 18:21:00,
2013-02-07 11:25:00,51.6,28.7,30.26,NNE,29,6.0,9.0,41,0.00,,---,0.00,VWS V14.01,2013-02-07 18:25:00,
2013-02-07 11:26:00,51.6,28.1,30.26,NE,43,1.0,9.0,40,0.00,,---,0.00,VWS V14.01,2013-02-07 18:26:00,
2013-02-07 11:30:00,51.7,29.4,30.26,NNE,30,4.0,9.0,42,0.00,,---,0.00,VWS V14.01,2013-02-07 18:30:00,
2013-02-07 11:31:00,51.7,27.6,30.26,NNE,30,3.0,6.0,39,0.00,,---,0.00,VWS V14.01,2013-02-07 18:31:00,
2013-02-07 11:35:00,51.4,27.9,30.26,NE,55,5.0,9.0,40,0.00,,---,0.00,VWS V14.01,2013-02-07 18:35:00,
2013-02-07 11:36:00,51.6,28.1,30.26,NE,35,4.0,7.0,40,0.00,,---,0.00,VWS V14.01,2013-02-07 18:36:00,
2013-02-07 11:40:00,52.2,27.4,30.26,NE,38,6.0,7.0,38,0.00,,---,0.00,VWS V14.01,2013-02-07 18:40:00,
2013-02-07 11:41:00,52.3,27.5,30.26,NE,41,6.0,6.0,38,0.00,,---,0.00,VWS V14.01,2013-02-07 18:41:00,
2013-02-07 11:45:00,52.9,28.6,30.25,NE,38,4.0,8.0,39,0.00,,---,0.00,VWS V14.01,2013-02-07 18:45:00,
2013-02-07 11:46:00,53.1,28.2,30.25,ENE,57,3.0,8.0,38,0.00,,---,0.00,VWS V14.01,2013-02-07 18:46:00,
2013-02-07 11:50:00,53.3,28.4,30.25,NNE,30,3.0,9.0,38,0.00,,---,0.00,VWS V14.01,2013-02-07 18:50:00,
2013-02-07 11:51:00,53.5,27.9,30.25,NNE,30,6.0,10.0,37,0.00,,---,0.00,VWS V14.01,2013-02-07 18:51:00,
2013-02-07 11:55:00,53.2,26.3,30.25,NE,51,1.0,10.0,35,0.00,,---,0.00,VWS V14.01,2013-02-07 18:55:00,
2013-02-07 11:56:00,53.1,26.2,30.25,ENE,61,7.0,7.0,35,0.00,,---,0.00,VWS V14.01,2013-02-07 18:56:00,
2013-02-07 12:00:00,52.8,25.9,30.24,ENE,59,4.0,8.0,35,0.00,,---,0.00,VWS V14.01,2013-02-07 19:00:00,
2013-02-07 12:01:00,52.9,26.0,30.24,ENE,60,7.0,7.0,35,0.00,,---,0.00,VWS V14.01,2013-02-07 19:01:00,
2013-02-07 12:05:00,53.1,25.5,30.24,NNE,29,6.0,8.0,34,0.00,,---,0.00,VWS V14.01,2013-02-07 19:05:00,
2013-02-07 12:06:00,53.1,25.5,30.24,NNE,32,8.0,9.0,34,0.00,,---,0.00,VWS V14.01,2013-02-07 19:06:00,
2013-02-07 12:10:00,53.2,24.9,30.24,ENE,59,7.0,9.0,33,0.00,,---,0.00,VWS V14.01,2013-02-07 19:10:00,
2013-02-07 12:11:00,53.2,26.3,30.24,NE,38,8.0,9.0,35,0.00,,---,0.00,VWS V14.01,2013-02-07 19:11:00,
2013-02-07 12:15:00,53.1,25.5,30.24,ENE,72,7.0,10.0,34,0.00,,---,0.00,VWS V14.01,2013-02-07 19:15:00,
2013-02-07 12:16:00,53.1,25.5,30.24,ENE,61,8.0,11.0,34,0.00,,---,0.00,VWS V14.01,2013-02-07 19:16:00,
2013-02-07 12:20:00,52.9,25.3,30.24,ENE,65,4.0,11.0,34,0.00,,---,0.00,VWS V14.01,2013-02-07 19:20:00,
2013-02-07 12:21:00,52.9,24.6,30.24,ENE,65,3.0,5.0,33,0.00,,---,0.00,VWS V14.01,2013-02-07 19:21:00,
2013-02-07 12:25:00,53.9,25.5,30.24,NNE,16,9.0,10.0,33,0.00,,---,0.00,VWS V14.01,2013-02-07 19:25:00,
2013-02-07 12:26:00,54.4,26.6,30.24,NNE,26,6.0,9.0,34,0.00,,---,0.00,VWS V14.01,2013-02-07 19:26:00,
2013-02-07 12:30:00,55.1,25.8,30.23,NNE,27,3.0,9.0,32,0.00,,---,0.00,VWS V14.01,2013-02-07 19:30:00,
2013-02-07 12:31:00,55.0,24.9,30.23,NNE,27,2.0,4.0,31,0.00,,---,0.00,VWS V14.01,2013-02-07 19:31:00,
2013-02-07 12:35:00,54.8,25.5,30.23,NNE,32,6.0,10.0,32,0.00,,---,0.00,VWS V14.01,2013-02-07 19:35:00,
2013-02-07 12:36:00,54.4,24.4,30.23,NE,34,6.0,6.0,31,0.00,,---,0.00,VWS V14.01,2013-02-07 19:36:00,
2013-02-07 12:40:00,54.5,25.3,30.23,NNE,30,4.0,6.0,32,0.00,,---,0.00,VWS V14.01,2013-02-07 19:40:00,
2013-02-07 12:41:00,55.0,25.7,30.23,NNE,30,3.0,4.0,32,0.00,,---,0.00,VWS V14.01,2013-02-07 19:41:00,
2013-02-07 12:45:00,55.3,26.0,30.22,NNE,13,4.0,10.0,32,0.00,,---,0.00,VWS V14.01,2013-02-07 19:45:00,
2013-02-07 12:46:00,55.4,24.5,30.22,ENE,71,5.0,10.0,30,0.00,,---,0.00,VWS V14.01,2013-02-07 19:46:00,
2013-02-07 12:50:00,54.8,24.0,30.22,NNE,22,3.0,10.0,30,0.00,,---,0.00,VWS V14.01,2013-02-07 19:50:00,
2013-02-07 12:51:00,54.5,23.7,30.22,WNW,303,4.0,6.0,30,0.00,,---,0.00,VWS V14.01,2013-02-07 19:51:00,
2013-02-07 12:55:00,53.9,24.0,30.22,WNW,288,1.0,6.0,31,0.00,,---,0.00,VWS V14.01,2013-02-07 19:55:00,
2013-02-07 12:56:00,54.4,25.2,30.22,WNW,289,4.0,5.0,32,0.00,,---,0.00,VWS V14.01,2013-02-07 19:56:00,
2013-02-07 13:00:00,55.4,25.3,30.21,North,355,5.0,8.0,31,0.00,,---,0.00,VWS V14.01,2013-02-07 20:00:00,
2013-02-07 13:01:00,55.9,26.5,30.21,NW,324,0.0,7.0,32,0.00,,---,0.00,VWS V14.01,2013-02-07 20:01:00,
2013-02-07 13:05:00,54.7,23.1,30.21,NE,53,8.0,8.0,29,0.00,,---,0.00,VWS V14.01,2013-02-07 20:05:00,
2013-02-07 13:06:00,54.8,25.5,30.21,NE,40,6.0,8.0,32,0.00,,---,0.00,VWS V14.01,2013-02-07 20:06:00,
2013-02-07 13:10:00,54.7,23.9,30.21,ENE,58,1.0,10.0,30,0.00,,---,0.00,VWS V14.01,2013-02-07 20:10:00,
2013-02-07 13:11:00,54.4,24.4,30.21,ENE,58,3.0,5.0,31,0.00,,---,0.00,VWS V14.01,2013-02-07 20:11:00,
2013-02-07 13:15:00,54.8,26.3,30.20,NW,316,7.0,7.0,33,0.00,,---,0.00,VWS V14.01,2013-02-07 20:15:00,
2013-02-07 13:16:00,54.7,24.7,30.20,WNW,292,3.0,7.0,31,0.00,,---,0.00,VWS V14.01,2013-02-07 20:16:00,
2013-02-07 13:20:00,54.5,24.5,30.20,NW,308,3.0,7.0,31,0.00,,---,0.00,VWS V14.01,2013-02-07 20:20:00,
2013-02-07 13:21:00,54.4,23.6,30.20,NNE,30,6.0,7.0,30,0.00,,---,0.00,VWS V14.01,2013-02-07 20:21:00,
2013-02-07 13:25:00,54.8,23.2,30.20,NNE,32,1.0,10.0,29,0.00,,---,0.00,VWS V14.01,2013-02-07 20:25:00,
2013-02-07 13:26:00,55.3,24.4,30.20,NNE,31,4.0,7.0,30,0.00,,---,0.00,VWS V14.01,2013-02-07 20:26:00,
2013-02-07 13:30:00,55.1,24.2,30.19,NNE,22,7.0,10.0,30,0.00,,---,0.00,VWS V14.01,2013-02-07 20:30:00,
2013-02-07 13:31:00,55.6,25.5,30.19,NNE,19,4.0,10.0,31,0.00,,---,0.00,VWS V14.01,2013-02-07 20:31:00,
2013-02-07 13:35:00,55.7,24.0,30.19,North,11,4.0,10.0,29,0.00,,---,0.00,VWS V14.01,2013-02-07 20:35:00,
2013-02-07 13:36:00,56.3,24.5,30.19,North,360,7.0,8.0,29,0.00,,---,0.00,VWS V14.01,2013-02-07 20:36:00,
2013-02-07 13:40:00,55.9,23.3,30.19,West,275,3.0,8.0,28,0.00,,---,0.00,VWS V14.01,2013-02-07 20:40:00,
2013-02-07 13:42:00,55.7,24.8,30.19,West,274,3.0,4.0,30,0.00,,---,0.00,VWS V14.01,2013-02-07 20:42:00,
2013-02-07 13:45:00,55.6,23.0,30.18,West,272,3.0,5.0,28,0.00,,---,0.00,VWS V14.01,2013-02-07 20:45:00,
2013-02-07 13:47:00,55.6,23.0,30.18,NW,323,4.0,6.0,28,0.00,,---,0.00,VWS V14.01,2013-02-07 20:47:00,
2013-02-07 13:50:00,55.1,22.6,30.18,North,349,8.0,8.0,28,0.00,,---,0.00,VWS V14.01,2013-02-07 20:50:00,
2013-02-07 13:52:00,55.1,22.6,30.18,North,355,1.0,8.0,28,0.00,,---,0.00,VWS V14.01,2013-02-07 20:52:00,
2013-02-07 13:55:00,56.0,24.2,30.18,North,350,4.0,8.0,29,0.00,,---,0.00,VWS V14.01,2013-02-07 20:55:00,
2013-02-07 13:57:00,55.9,24.1,30.18,North,350,0.0,4.0,29,0.00,,---,0.00,VWS V14.01,2013-02-07 20:57:00,
2013-02-07 14:00:00,55.6,23.0,30.17,North,350,0.0,4.0,28,0.00,,---,0.00,VWS V14.01,2013-02-07 21:00:00,
2013-02-07 14:02:00,55.9,24.1,30.17,WNW,291,1.0,3.0,29,0.00,,---,0.00,VWS V14.01,2013-02-07 21:02:00,
2013-02-07 14:05:00,55.4,22.0,30.17,West,277,2.0,4.0,27,0.00,,---,0.00,VWS V14.01,2013-02-07 21:05:00,
2013-02-07 14:07:00,55.6,22.2,30.17,West,277,2.0,2.0,27,0.00,,---,0.00,VWS V14.01,2013-02-07 21:07:00,
2013-02-07 14:10:00,55.6,23.0,30.17,West,277,1.0,2.0,28,0.00,,---,0.00,VWS V14.01,2013-02-07 21:10:00,
2013-02-07 14:12:00,55.9,23.3,30.17,ESE,106,5.0,9.0,28,0.00,,---,0.00,VWS V14.01,2013-02-07 21:12:00,
2013-02-07 14:15:00,55.6,22.2,30.17,East,94,7.0,9.0,27,0.00,,---,0.00,VWS V14.01,2013-02-07 21:15:00,
2013-02-07 14:17:00,55.6,22.2,30.17,SSE,149,5.0,12.0,27,0.00,,---,0.00,VWS V14.01,2013-02-07 21:17:00,
2013-02-07 14:20:00,55.3,22.8,30.17,SSE,148,0.0,12.0,28,0.00,,---,0.00,VWS V14.01,2013-02-07 21:20:00,
2013-02-07 14:22:00,55.3,22.8,30.17,SE,128,1.0,8.0,28,0.00,,---,0.00,VWS V14.01,2013-02-07 21:22:00,
2013-02-07 14:25:00,55.4,22.9,30.17,SSE,158,2.0,8.0,28,0.00,,---,0.00,VWS V14.01,2013-02-07 21:25:00,
2013-02-07 14:27:00,55.6,23.0,30.17,WSW,238,8.0,8.0,28,0.00,,---,0.00,VWS V14.01,2013-02-07 21:27:00,
2013-02-07 14:30:00,55.9,24.1,30.17,SW,221,2.0,8.0,29,0.00,,---,0.00,VWS V14.01,2013-02-07 21:30:00,
2013-02-07 14:32:00,56.2,23.5,30.17,SW,221,1.0,3.0,28,0.00,,---,0.00,VWS V14.01,2013-02-07 21:32:00,
2013-02-07 14:35:00,56.5,24.6,30.17,NNW,338,0.0,5.0,29,0.00,,---,0.00,VWS V14.01,2013-02-07 21:35:00,
2013-02-07 14:37:00,56.3,23.6,30.17,NNW,338,4.0,4.0,28,0.00,,---,0.00,VWS V14.01,2013-02-07 21:37:00,
2013-02-07 14:40:00,56.5,23.8,30.17,NW,323,7.0,7.0,28,0.00,,---,0.00,VWS V14.01,2013-02-07 21:40:00,
2013-02-07 14:42:00,56.5,23.8,30.17,North,355,6.0,10.0,28,0.00,,---,0.00,VWS V14.01,2013-02-07 21:42:00,
2013-02-07 14:45:00,56.5,23.8,30.16,North,10,3.0,10.0,28,0.00,,---,0.00,VWS V14.01,2013-02-07 21:45:00,
2013-02-07 14:47:00,56.5,22.9,30.16,NE,43,0.0,5.0,27,0.00,,---,0.00,VWS V14.01,2013-02-07 21:47:00,
2013-02-07 14:50:00,56.5,23.8,30.16,NNE,32,0.0,5.0,28,0.00,,---,0.00,VWS V14.01,2013-02-07 21:50:00,
2013-02-07 14:52:00,56.3,22.8,30.16,NNE,32,1.0,3.0,27,0.00,,---,0.00,VWS V14.01,2013-02-07 21:52:00,
2013-02-07 14:55:00,56.3,23.6,30.16,NNE,32,2.0,3.0,28,0.00,,---,0.00,VWS V14.01,2013-02-07 21:55:00,
2013-02-07 14:57:00,56.2,23.5,30.16,NNE,33,4.0,5.0,28,0.00,,---,0.00,VWS V14.01,2013-02-07 21:57:00,
2013-02-07 15:00:00,56.2,23.5,30.15,NNE,33,4.0,5.0,28,0.00,,---,0.00,VWS V14.01,2013-02-07 22:00:00,
2013-02-07 15:02:00,56.0,25.0,30.15,NNE,27,3.0,5.0,30,0.00,,---,0.00,VWS V14.01,2013-02-07 22:02:00,
2013-02-07 15:05:00,56.3,24.5,30.15,NNE,13,4.0,8.0,29,0.00,,---,0.00,VWS V14.01,2013-02-07 22:05:00,
2013-02-07 15:07:00,56.3,24.5,30.15,NNE,12,3.0,7.0,29,0.00,,---,0.00,VWS V14.01,2013-02-07 22:07:00,
2013-02-07 15:10:00,56.5,23.8,30.15,NNE,12,2.0,7.0,28,0.00,,---,0.00,VWS V14.01,2013-02-07 22:10:00,
2013-02-07 15:12:00,56.5,22.9,30.15,NNE,12,0.0,4.0,27,0.00,,---,0.00,VWS V14.01,2013-02-07 22:12:00,
2013-02-07 15:15:00,56.6,23.9,30.15,NNE,12,3.0,4.0,28,0.00,,---,0.00,VWS V14.01,2013-02-07 22:15:00,
2013-02-07 15:17:00,57.3,24.5,30.15,North,5,4.0,4.0,28,0.00,,---,0.00,VWS V14.01,2013-02-07 22:17:00,
2013-02-07 15:20:00,57.6,23.9,30.15,North,5,3.0,6.0,27,0.00,,---,0.00,VWS V14.01,2013-02-07 22:20:00,
2013-02-07 15:22:00,57.0,22.5,30.15,North,5,0.0,3.0,26,0.00,,---,0.00,VWS V14.01,2013-02-07 22:22:00,
2013-02-07 15:25:00,57.0,23.4,30.15,North,5,0.0,4.0,27,0.00,,---,0.00,VWS V14.01,2013-02-07 22:25:00,
2013-02-07 15:27:00,56.7,23.1,30.15,West,266,9.0,9.0,27,0.00,,---,0.00,VWS V14.01,2013-02-07 22:27:00,
2013-02-07 15:30:00,57.0,23.4,30.15,South,180,5.0,9.0,27,0.00,,---,0.00,VWS V14.01,2013-02-07 22:30:00,
2013-02-07 15:32:00,57.5,24.7,30.15,SW,217,2.0,10.0,28,0.00,,---,0.00,VWS V14.01,2013-02-07 22:32:00,
2013-02-07 15:35:00,57.6,23.9,30.15,West,281,9.0,15.0,27,0.00,,---,0.00,VWS V14.01,2013-02-07 22:35:00,
2013-02-07 15:38:00,57.5,24.7,30.15,WSW,254,13.0,16.0,28,0.00,,---,0.00,VWS V14.01,2013-02-07 22:38:00,
2013-02-07 15:40:00,57.3,23.6,30.15,SW,235,9.0,16.0,27,0.00,,---,0.00,VWS V14.01,2013-02-07 22:40:00,
2013-02-07 15:43:00,57.0,24.2,30.15,WSW,252,5.0,12.0,28,0.00,,---,0.00,VWS V14.01,2013-02-07 22:43:00,
2013-02-07 15:45:00,56.6,23.9,30.15,SSW,200,2.0,12.0,28,0.00,,---,0.00,VWS V14.01,2013-02-07 22:45:00,
2013-02-07 15:48:00,56.7,24.0,30.15,South,184,4.0,6.0,28,0.00,,---,0.00,VWS V14.01,2013-02-07 22:48:00,
2013-02-07 15:50:00,56.6,23.9,30.15,SSW,199,5.0,10.0,28,0.00,,---,0.00,VWS V14.01,2013-02-07 22:50:00,
2013-02-07 15:53:00,56.5,23.8,30.15,WSW,242,4.0,11.0,28,0.00,,---,0.00,VWS V14.01,2013-02-07 22:53:00,
2013-02-07 15:55:00,56.2,22.7,30.15,SW,232,3.0,14.0,27,0.00,,---,0.00,VWS V14.01,2013-02-07 22:55:00,
2013-02-07 15:58:00,56.0,23.4,30.15,SSE,155,8.0,14.0,28,0.00,,---,0.00,VWS V14.01,2013-02-07 22:58:00,
2013-02-07 16:00:00,55.9,23.3,30.14,SSW,203,8.0,14.0,28,0.00,,---,0.00,VWS V14.01,2013-02-07 23:00:00,
2013-02-07 16:03:00,55.7,23.1,30.14,South,187,5.0,13.0,28,0.00,,---,0.00,VWS V14.01,2013-02-07 23:03:00,
2013-02-07 16:05:00,55.6,23.9,30.14,South,190,5.0,13.0,29,0.00,,---,0.00,VWS V14.01,2013-02-07 23:05:00,
2013-02-07 16:08:00,55.6,24.7,30.14,SW,215,10.0,14.0,30,0.00,,---,0.00,VWS V14.01,2013-02-07 23:08:00,
2013-02-07 16:10:00,55.4,24.5,30.14,South,178,4.0,14.0,30,0.00,,---,0.00,VWS V14.01,2013-02-07 23:10:00,
2013-02-07 16:13:00,55.4,24.5,30.14,SSW,200,8.0,14.0,30,0.00,,---,0.00,VWS V14.01,2013-02-07 23:13:00,
2013-02-07 16:15:00,55.3,25.2,30.14,South,190,5.0,14.0,31,0.00,,---,0.00,VWS V14.01,2013-02-07 23:15:00,
2013-02-07 16:18:00,55.0,25.7,30.14,South,173,8.0,10.0,32,0.00,,---,0.00,VWS V14.01,2013-02-07 23:18:00,
2013-02-07 16:20:00,54.8,24.8,30.14,SSW,197,7.0,12.0,31,0.00,,---,0.00,VWS V14.01,2013-02-07 23:20:00,
2013-02-07 16:23:00,54.8,26.3,30.14,SW,223,11.0,11.0,33,0.00,,---,0.00,VWS V14.01,2013-02-07 23:23:00,
2013-02-07 16:25:00,54.8,26.3,30.14,SSW,200,7.0,17.0,33,0.00,,---,0.00,VWS V14.01,2013-02-07 23:25:00,
2013-02-07 16:28:00,54.5,26.0,30.14,SSE,168,9.0,13.0,33,0.00,,---,0.00,VWS V14.01,2013-02-07 23:28:00,
2013-02-07 16:30:00,54.5,26.7,30.14,SSW,211,7.0,13.0,34,0.00,,---,0.00,VWS V14.01,2013-02-07 23:30:00,
2013-02-07 16:33:00,54.5,26.7,30.14,SW,225,8.0,10.0,34,0.00,,---,0.00,VWS V14.01,2013-02-07 23:33:00,
2013-02-07 16:35:00,54.5,26.7,30.14,South,184,8.0,14.0,34,0.00,,---,0.00,VWS V14.01,2013-02-07 23:35:00,
2013-02-07 16:38:00,54.4,26.6,30.14,South,191,9.0,13.0,34,0.00,,---,0.00,VWS V14.01,2013-02-07 23:38:00,
2013-02-07 16:40:00,54.4,26.6,30.14,SSW,196,8.0,13.0,34,0.00,,---,0.00,VWS V14.01,2013-02-07 23:40:00,
2013-02-07 16:43:00,53.9,26.9,30.14,SSW,200,6.0,15.0,35,0.00,,---,0.00,VWS V14.01,2013-02-07 23:43:00,
2013-02-07 16:45:00,53.8,26.8,30.13,SW,216,8.0,15.0,35,0.00,,---,0.00,VWS V14.01,2013-02-07 23:45:00,
2013-02-07 16:48:00,53.6,27.3,30.13,SW,235,11.0,14.0,36,0.00,,---,0.00,VWS V14.01,2013-02-07 23:48:00,
2013-02-07 16:50:00,53.5,27.2,30.13,SW,216,6.0,14.0,36,0.00,,---,0.00,VWS V14.01,2013-02-07 23:50:00,
2013-02-07 16:53:00,53.3,27.0,30.13,SW,215,13.0,14.0,36,0.00,,---,0.00,VWS V14.01,2013-02-07 23:53:00,
2013-02-07 16:55:00,53.2,27.0,30.13,South,188,12.0,14.0,36,0.00,,---,0.00,VWS V14.01,2013-02-07 23:55:00,
2013-02-07 16:58:00,52.8,27.3,30.13,South,181,7.0,12.0,37,0.00,,---,0.00,VWS V14.01,2013-02-07 23:58:00,
2013-02-07 17:00:00,52.6,27.1,30.13,SW,228,6.0,13.0,37,0.00,,---,0.00,VWS V14.01,2013-02-08 00:00:00,
2013-02-07 17:05:00,52.4,27.6,30.13,SSW,202,7.0,12.0,38,0.00,,---,0.00,VWS V14.01,2013-02-08 00:05:00,
2013-02-07 17:10:00,51.8,28.3,30.13,SSW,202,8.0,12.0,40,0.00,,---,0.00,VWS V14.01,2013-02-08 00:10:00,
2013-02-07 17:15:00,51.4,27.9,30.13,SW,225,7.0,12.0,40,0.00,,---,0.00,VWS V14.01,2013-02-08 00:15:00,
2013-02-07 17:20:00,51.1,27.6,30.13,SSW,202,7.0,12.0,40,0.00,,---,0.00,VWS V14.01,2013-02-08 00:20:00,
2013-02-07 17:29:00,51.1,27.6,30.13,SSW,202,7.0,12.0,40,0.00,,---,0.00,VWS V14.01,2013-02-08 00:29:00,
2013-02-07 17:30:00,50.7,27.9,30.12,SSW,205,7.0,9.0,41,0.00,,---,0.00,VWS V14.01,2013-02-08 00:30:00,
2013-02-07 17:34:00,50.5,27.7,30.12,SSW,194,5.0,10.0,41,0.00,,---,0.00,VWS V14.01,2013-02-08 00:34:00,
2013-02-07 17:35:00,50.5,27.7,30.12,SSW,194,5.0,10.0,41,0.00,,---,0.00,VWS V14.01,2013-02-08 00:35:00,
2013-02-07 17:39:00,50.4,28.2,30.12,South,190,8.0,10.0,42,0.00,,---,0.00,VWS V14.01,2013-02-08 00:39:00,
2013-02-07 17:40:00,50.2,28.0,30.12,SSW,203,7.0,10.0,42,0.00,,---,0.00,VWS V14.01,2013-02-08 00:40:00,
2013-02-07 17:44:00,49.9,28.3,30.12,South,182,6.0,9.0,43,0.00,,---,0.00,VWS V14.01,2013-02-08 00:44:00,
2013-02-07 17:45:00,49.9,28.3,30.12,South,186,7.0,10.0,43,0.00,,---,0.00,VWS V14.01,2013-02-08 00:45:00,
2013-02-07 17:49:00,49.6,28.6,30.12,SSW,193,8.0,13.0,44,0.00,,---,0.00,VWS V14.01,2013-02-08 00:49:00,
2013-02-07 17:50:00,49.6,28.6,30.12,SW,219,7.0,13.0,44,0.00,,---,0.00,VWS V14.01,2013-02-08 00:50:00,
2013-02-07 17:54:00,49.2,28.8,30.12,SSW,197,6.0,10.0,45,0.00,,---,0.00,VWS V14.01,2013-02-08 00:54:00,
2013-02-07 17:55:00,49.2,28.8,30.12,South,190,9.0,10.0,45,0.00,,---,0.00,VWS V14.01,2013-02-08 00:55:00,
2013-02-07 17:59:00,48.8,28.4,30.12,SSW,202,7.0,13.0,45,0.00,,---,0.00,VWS V14.01,2013-02-08 00:59:00,
2013-02-07 18:00:00,48.8,28.4,30.12,SSW,203,7.0,13.0,45,0.00,,---,0.00,VWS V14.01,2013-02-08 01:00:00,
2013-02-07 18:04:00,48.5,28.7,30.12,SSW,202,7.0,9.0,46,0.00,,---,0.00,VWS V14.01,2013-02-08 01:04:00,
2013-02-07 18:05:00,48.5,28.7,30.12,SSW,196,7.0,9.0,46,0.00,,---,0.00,VWS V14.01,2013-02-08 01:05:00,
2013-02-07 18:09:00,48.2,28.9,30.12,SSW,208,4.0,7.0,47,0.00,,---,0.00,VWS V14.01,2013-02-08 01:09:00,
2013-02-07 18:10:00,48.0,28.8,30.12,SSW,205,7.0,7.0,47,0.00,,---,0.00,VWS V14.01,2013-02-08 01:10:00,
2013-02-07 18:14:00,47.7,29.0,30.12,SSW,196,4.0,8.0,48,0.00,,---,0.00,VWS V14.01,2013-02-08 01:14:00,
2013-02-07 18:15:00,47.7,29.0,30.12,SSW,205,4.0,8.0,48,0.00,,---,0.00,VWS V14.01,2013-02-08 01:15:00,
2013-02-07 18:19:00,47.3,28.6,30.12,SSW,196,7.0,7.0,48,0.00,,---,0.00,VWS V14.01,2013-02-08 01:19:00,
2013-02-07 18:20:00,47.3,28.6,30.12,SSW,207,7.0,7.0,48,0.00,,---,0.00,VWS V14.01,2013-02-08 01:20:00,
2013-02-07 18:24:00,47.0,28.9,30.12,SSW,202,5.0,8.0,49,0.00,,---,0.00,VWS V14.01,2013-02-08 01:24:00,
2013-02-07 18:25:00,47.0,28.9,30.12,SSW,213,4.0,8.0,49,0.00,,---,0.00,VWS V14.01,2013-02-08 01:25:00,
2013-02-07 18:29:00,46.7,28.6,30.12,SSW,211,5.0,8.0,49,0.00,,---,0.00,VWS V14.01,2013-02-08 01:29:00,
2013-02-07 18:30:00,46.7,28.6,30.12,SSW,201,4.0,8.0,49,0.00,,---,0.00,VWS V14.01,2013-02-08 01:30:00,
2013-02-07 18:34:00,46.4,28.8,30.12,SW,215,6.0,7.0,50,0.00,,---,0.00,VWS V14.01,2013-02-08 01:34:00,
2013-02-07 18:35:00,46.4,28.8,30.12,SSW,208,5.0,7.0,50,0.00,,---,0.00,VWS V14.01,2013-02-08 01:35:00,
2013-02-07 18:39:00,46.1,29.0,30.12,SSW,196,4.0,11.0,51,0.00,,---,0.00,VWS V14.01,2013-02-08 01:39:00,
2013-02-07 18:40:00,46.1,29.0,30.12,SW,215,8.0,11.0,51,0.00,,---,0.00,VWS V14.01,2013-02-08 01:40:00,
2013-02-07 18:44:00,46.0,28.9,30.12,SW,225,5.0,11.0,51,0.00,,---,0.00,VWS V14.01,2013-02-08 01:44:00,
2013-02-07 18:45:00,46.0,28.9,30.12,WSW,243,9.0,11.0,51,0.00,,---,0.00,VWS V14.01,2013-02-08 01:45:00,
2013-02-07 18:50:00,45.8,28.7,30.12,SSW,198,7.0,11.0,51,0.00,,---,0.00,VWS V14.01,2013-02-08 01:50:00,
2013-02-07 18:55:00,45.7,28.6,30.12,SSW,211,5.0,10.0,51,0.00,,---,0.00,VWS V14.01,2013-02-08 01:55:00,
2013-02-07 19:00:00,45.7,28.6,30.12,SW,222,4.0,10.0,51,0.00,,---,0.00,VWS V14.01,2013-02-08 02:00:00,
2013-02-07 19:05:00,45.5,28.4,30.12,SW,219,4.0,9.0,51,0.00,,---,0.00,VWS V14.01,2013-02-08 02:05:00,
2013-02-07 19:10:00,45.4,28.4,30.12,SW,217,5.0,10.0,51,0.00,,---,0.00,VWS V14.01,2013-02-08 02:10:00,
2013-02-07 19:15:00,45.4,28.4,30.13,SW,215,7.0,9.0,51,0.00,,---,0.00,VWS V14.01,2013-02-08 02:15:00,
2013-02-07 19:20:00,45.2,28.2,30.13,SSW,206,6.0,10.0,51,0.00,,---,0.00,VWS V14.01,2013-02-08 02:20:00,
2013-02-07 19:25:00,45.1,28.1,30.13,SW,216,6.0,9.0,51,0.00,,---,0.00,VWS V14.01,2013-02-08 02:25:00,
2013-02-07 19:30:00,44.8,27.8,30.13,SSW,199,5.0,8.0,51,0.00,,---,0.00,VWS V14.01,2013-02-08 02:30:00,
2013-02-07 19:35:00,44.6,28.1,30.13,SSW,196,3.0,7.0,52,0.00,,---,0.00,VWS V14.01,2013-02-08 02:35:00,
2013-02-07 19:40:00,44.3,27.8,30.13,South,190,5.0,7.0,52,0.00,,---,0.00,VWS V14.01,2013-02-08 02:40:00,
2013-02-07 19:45:00,44.1,27.6,30.13,South,186,4.0,8.0,52,0.00,,---,0.00,VWS V14.01,2013-02-08 02:45:00,
2013-02-07 19:50:00,43.8,27.8,30.13,South,189,6.0,7.0,53,0.00,,---,0.00,VWS V14.01,2013-02-08 02:50:00,
2013-02-07 19:55:00,43.5,28.0,30.13,SSW,199,7.0,7.0,54,0.00,,---,0.00,VWS V14.01,2013-02-08 02:55:00,
2013-02-07 20:00:00,43.3,27.8,30.14,SSW,205,4.0,7.0,54,0.00,,---,0.00,VWS V14.01,2013-02-08 03:00:00,
2013-02-07 20:05:00,43.1,28.0,30.14,SSW,194,7.0,9.0,55,0.00,,---,0.00,VWS V14.01,2013-02-08 03:05:00,
2013-02-07 20:10:00,42.9,27.9,30.14,SSW,198,7.0,12.0,55,0.00,,---,0.00,VWS V14.01,2013-02-08 03:10:00,
2013-02-07 20:15:00,42.9,27.9,30.13,SSW,197,8.0,10.0,55,0.00,,---,0.00,VWS V14.01,2013-02-08 03:15:00,
2013-02-07 20:20:00,42.9,27.9,30.13,SSW,213,7.0,8.0,55,0.00,,---,0.00,VWS V14.01,2013-02-08 03:20:00,
2013-02-07 20:25:00,42.8,27.8,30.13,SSW,201,7.0,7.0,55,0.00,,---,0.00,VWS V14.01,2013-02-08 03:25:00,
2013-02-07 20:30:00,42.6,27.6,30.13,SSW,197,4.0,7.0,55,0.00,,---,0.00,VWS V14.01,2013-02-08 03:30:00,
2013-02-07 20:35:00,42.5,27.9,30.13,South,188,6.0,10.0,56,0.00,,---,0.00,VWS V14.01,2013-02-08 03:35:00,
2013-02-07 20:40:00,42.3,27.7,30.13,South,182,7.0,9.0,56,0.00,,---,0.00,VWS V14.01,2013-02-08 03:40:00,
2013-02-07 20:45:00,42.1,28.0,30.12,SSW,192,8.0,10.0,57,0.00,,---,0.00,VWS V14.01,2013-02-08 03:45:00,
2013-02-07 20:50:00,41.9,27.8,30.12,SSW,201,7.0,11.0,57,0.00,,---,0.00,VWS V14.01,2013-02-08 03:50:00,
2013-02-07 20:55:00,41.6,27.5,30.12,SSW,202,7.0,8.0,57,0.00,,---,0.00,VWS V14.01,2013-02-08 03:55:00,
2013-02-07 21:00:00,41.6,27.9,30.11,South,184,7.0,8.0,58,0.00,,---,0.00,VWS V14.01,2013-02-08 04:00:00,
2013-02-07 21:05:00,41.5,27.8,30.11,SSW,198,7.0,10.0,58,0.00,,---,0.00,VWS V14.01,2013-02-08 04:05:00,
2013-02-07 21:06:00,41.5,27.8,30.11,SSW,197,7.0,10.0,58,0.00,,---,0.00,VWS V14.01,2013-02-08 04:06:00,
2013-02-07 21:10:00,41.5,27.8,30.11,South,189,6.0,10.0,58,0.00,,---,0.00,VWS V14.01,2013-02-08 04:10:00,
2013-02-07 21:11:00,41.5,27.8,30.11,South,186,6.0,9.0,58,0.00,,---,0.00,VWS V14.01,2013-02-08 04:11:00,
2013-02-07 21:15:00,41.5,27.8,30.11,SSW,201,7.0,10.0,58,0.00,,---,0.00,VWS V14.01,2013-02-08 04:15:00,
2013-02-07 21:16:00,41.5,27.8,30.11,SSW,200,7.0,7.0,58,0.00,,---,0.00,VWS V14.01,2013-02-08 04:16:00,
2013-02-07 21:20:00,41.3,27.6,30.11,South,188,6.0,8.0,58,0.00,,---,0.00,VWS V14.01,2013-02-08 04:20:00,
2013-02-07 21:21:00,41.3,27.6,30.11,South,188,3.0,7.0,58,0.00,,---,0.00,VWS V14.01,2013-02-08 04:21:00,
2013-02-07 21:25:00,41.3,27.6,30.11,SSW,194,6.0,8.0,58,0.00,,---,0.00,VWS V14.01,2013-02-08 04:25:00,
2013-02-07 21:26:00,41.3,27.6,30.11,SSW,200,5.0,7.0,58,0.00,,---,0.00,VWS V14.01,2013-02-08 04:26:00,
2013-02-07 21:30:00,41.2,28.0,30.11,SSW,196,7.0,9.0,59,0.00,,---,0.00,VWS V14.01,2013-02-08 04:30:00,
2013-02-07 21:31:00,41.2,28.0,30.11,SSW,198,5.0,8.0,59,0.00,,---,0.00,VWS V14.01,2013-02-08 04:31:00,
2013-02-07 21:35:00,41.2,28.0,30.11,SSW,193,7.0,8.0,59,0.00,,---,0.00,VWS V14.01,2013-02-08 04:35:00,
2013-02-07 21:36:00,41.2,28.0,30.11,South,190,4.0,7.0,59,0.00,,---,0.00,VWS V14.01,2013-02-08 04:36:00,
2013-02-07 21:40:00,41.1,27.9,30.11,SSW,205,7.0,7.0,59,0.00,,---,0.00,VWS V14.01,2013-02-08 04:40:00,
2013-02-07 21:41:00,41.1,27.9,30.11,SSW,205,7.0,7.0,59,0.00,,---,0.00,VWS V14.01,2013-02-08 04:41:00,
2013-02-07 21:45:00,41.1,27.9,30.10,SSW,204,5.0,7.0,59,0.00,,---,0.00,VWS V14.01,2013-02-08 04:45:00,
2013-02-07 21:46:00,41.1,27.9,30.10,SSW,204,4.0,6.0,59,0.00,,---,0.00,VWS V14.01,2013-02-08 04:46:00,
2013-02-07 21:50:00,40.9,27.7,30.10,SSW,204,4.0,6.0,59,0.00,,---,0.00,VWS V14.01,2013-02-08 04:50:00,
2013-02-07 21:51:00,40.9,27.7,30.10,SSW,204,4.0,5.0,59,0.00,,---,0.00,VWS V14.01,2013-02-08 04:51:00,
2013-02-07 21:55:00,40.8,27.6,30.10,SSW,204,5.0,6.0,59,0.00,,---,0.00,VWS V14.01,2013-02-08 04:55:00,
2013-02-07 21:56:00,40.8,27.6,30.10,SSW,203,3.0,6.0,59,0.00,,---,0.00,VWS V14.01,2013-02-08 04:56:00,
2013-02-07 22:00:00,40.6,27.4,30.10,SSW,201,4.0,4.0,59,0.00,,---,0.00,VWS V14.01,2013-02-08 05:00:00,
2013-02-07 22:02:00,40.5,27.7,30.10,SSW,201,3.0,5.0,60,0.00,,---,0.00,VWS V14.01,2013-02-08 05:02:00,
2013-02-07 22:05:00,40.5,27.7,30.10,SSW,202,3.0,7.0,60,0.00,,---,0.00,VWS V14.01,2013-02-08 05:05:00,
2013-02-07 22:10:00,40.2,27.8,30.10,SSW,202,6.0,8.0,61,0.00,,---,0.00,VWS V14.01,2013-02-08 05:10:00,
2013-02-07 22:15:00,40.0,27.6,30.09,SSW,202,6.0,9.0,61,0.00,,---,0.00,VWS V14.01,2013-02-08 05:15:00,
2013-02-07 22:20:00,39.9,28.0,30.09,South,180,6.0,9.0,62,0.00,,---,0.00,VWS V14.01,2013-02-08 05:20:00,
2013-02-07 22:25:00,39.8,27.9,30.09,South,180,6.0,7.0,62,0.00,,---,0.00,VWS V14.01,2013-02-08 05:25:00,
2013-02-07 22:30:00,39.8,27.5,30.09,South,180,6.0,8.0,61,0.00,,---,0.00,VWS V14.01,2013-02-08 05:30:00,
2013-02-07 22:35:00,39.8,27.5,30.09,South,180,5.0,7.0,61,0.00,,---,0.00,VWS V14.01,2013-02-08 05:35:00,
2013-02-07 22:40:00,39.8,27.5,30.09,South,180,5.0,6.0,61,0.00,,---,0.00,VWS V14.01,2013-02-08 05:40:00,
2013-02-07 22:45:00,39.8,27.1,30.08,South,180,4.0,6.0,60,0.00,,---,0.00,VWS V14.01,2013-02-08 05:45:00,
2013-02-07 22:50:00,39.8,27.1,30.08,South,180,5.0,8.0,60,0.00,,---,0.00,VWS V14.01,2013-02-08 05:50:00,
2013-02-07 22:55:00,39.6,26.9,30.08,South,180,7.0,9.0,60,0.00,,---,0.00,VWS V14.01,2013-02-08 05:55:00,
2013-02-07 23:00:00,39.5,26.8,30.07,South,180,8.0,11.0,60,0.00,,---,0.00,VWS V14.01,2013-02-08 06:00:00,
2013-02-07 23:05:00,39.2,26.9,30.07,South,180,9.0,12.0,61,0.00,,---,0.00,VWS V14.01,2013-02-08 06:05:00,
2013-02-07 23:10:00,39.1,26.8,30.07,South,180,8.0,11.0,61,0.00,,---,0.00,VWS V14.01,2013-02-08 06:10:00,
2013-02-07 23:15:00,38.9,26.6,30.07,South,180,6.0,10.0,61,0.00,,---,0.00,VWS V14.01,2013-02-08 06:15:00,
2013-02-07 23:20:00,38.8,26.1,30.07,South,180,5.0,6.0,60,0.00,,---,0.00,VWS V14.01,2013-02-08 06:20:00,
2013-02-07 23:25:00,38.6,25.9,30.07,South,180,5.0,7.0,60,0.00,,---,0.00,VWS V14.01,2013-02-08 06:25:00,
2013-02-07 23:30:00,38.6,25.5,30.06,South,180,5.0,11.0,59,0.00,,---,0.00,VWS V14.01,2013-02-08 06:30:00,
2013-02-07 23:35:00,38.6,24.3,30.06,South,180,5.0,15.0,56,0.00,,---,0.00,VWS V14.01,2013-02-08 06:35:00,
2013-02-07 23:40:00,38.9,23.7,30.06,SSW,202,6.0,11.0,54,0.00,,---,0.00,VWS V14.01,2013-02-08 06:40:00,
2013-02-07 23:45:00,39.3,23.6,30.06,SSW,202,6.0,10.0,53,0.00,,---,0.00,VWS V14.01,2013-02-08 06:45:00,
2013-02-07 23:50:00,39.7,23.5,30.06,South,180,7.0,12.0,52,0.00,,---,0.00,VWS V14.01,2013-02-08 06:50:00,
2013-02-07 23:55:00,40.1,23.4,30.06,South,180,8.0,12.0,51,0.00,,---,0.00,VWS V14.01,2013-02-08 06:55:00,